DW2893 Weather Reports


Display with metric or nautical units.
time (UTC)temp
F
wind
direction
speed
MPH
gust
MPH
rain 1hr
in
rain 24hr
in
rain mn
in
humidity
%
barometer
mb
20260506155306 53 36 6.0 10.0 0.23 0.23 0.23 89 1012.5
20260506154807 53 349 6.0 12.0 0.23 0.23 0.23 89 1012.5
20260506154306 53 358 6.0 12.0 0.22 0.22 0.22 87 1012.5
20260506153306 54 12 4.0 6.0 0.10 0.10 0.10 85 1013.4
20260506152807 54 270 3.0 5.0 0.04 0.04 0.04 84 1013.4
20260506151307 54 8 5.0 12.0 0.00 0.00 0.00 83 1012.7
20260506150807 54 346 6.0 12.0 0.00 0.00 0.00 83 1012.7
20260506150306 54 11 3.0 12.0 0.00 0.00 0.00 84 1012.4
20260506145807 54 30 4.0 12.0 0.00 0.00 0.00 84 1012.7
20260506145307 54 3 6.0 10.0 0.00 0.00 0.00 84 1012.7
20260506144806 54 22 6.0 12.0 0.00 0.00 0.00 84 1012.9
20260506144307 54 18 7.0 14.0 0.00 0.00 0.00 83 1012.9
20260506143806 54 345 7.0 12.0 0.00 0.00 0.00 84 1012.9
20260506141806 53 351 5.0 13.0 0.00 0.00 0.00 85 1012.4
20260506141307 53 340 6.0 12.0 0.00 0.00 0.00 85 1012.2
20260506133306 53 7 3.0 7.0 0.00 0.00 0.00 85 1011.7
20260506132806 53 35 3.0 10.0 0.00 0.00 0.00 85 1011.7
20260506132307 53 350 5.0 12.0 0.00 0.00 0.00 85 1011.3
20260506131806 53 1 6.0 13.0 0.00 0.00 0.00 84 1011.3
20260506131306 53 4 7.0 12.0 0.00 0.00 0.00 84 1011.2
20260506130806 53 7 6.0 12.0 0.00 0.00 0.00 83 1011.4
20260506130306 53 356 8.0 15.0 0.00 0.00 0.00 83 1011.2
20260506125306 53 16 5.0 17.0 0.00 0.00 0.00 83 1011.0
20260506124806 53 341 7.0 17.0 0.00 0.00 0.00 83 1011.0
20260506123807 53 352 5.0 15.0 0.00 0.00 0.00 83 1011.0
20260506123306 53 353 3.0 13.0 0.00 0.00 0.00 83 1011.1
20260506122306 53 5 7.0 14.0 0.00 0.00 0.00 82 1011.1
20260506121306 53 0 6.0 13.0 0.00 0.00 0.00 83 1010.8
20260506120806 53 351 7.0 13.0 0.00 0.00 0.00 83 1011.0
20260506115805 53 354 6.0 10.0 0.00 0.00 0.00 83 1010.5
20260506114306 53 350 6.0 12.0 0.00 0.00 0.00 82 1010.5
20260506113806 53 1 9.0 15.0 0.00 0.00 0.00 81 1010.3
20260506112806 54 20 5.0 14.0 0.00 0.00 0.00 80 1010.1
20260506111806 54 343 7.0 15.0 0.00 0.00 0.00 79 1010.1
20260506110806 55 350 7.0 12.0 0.00 0.00 0.00 78 1009.9
20260506110306 55 3 6.0 12.0 0.00 0.00 0.00 78 1009.7
20260506105806 55 12 6.0 14.0 0.00 0.00 0.00 78 1009.7
20260506105305 55 7 9.0 15.0 0.00 0.00 0.00 78 1009.7
20260506104306 55 342 5.0 9.0 0.00 0.00 0.00 78 1009.3
20260506103806 55 2 7.0 12.0 0.00 0.00 0.00 78 1009.3
20260506102805 55 10 6.0 14.0 0.00 0.00 0.00 77 1009.3
20260506102306 55 14 6.0 12.0 0.00 0.00 0.00 77 1009.0
20260506101805 55 3 5.0 12.0 0.00 0.00 0.00 77 1008.9
20260506100305 56 354 6.0 9.0 0.00 0.00 0.00 76 1008.9
20260506095806 56 10 5.0 12.0 0.00 0.00 0.00 76 1008.9
20260506095306 56 345 7.0 12.0 0.00 0.00 0.00 76 1008.8
20260506094805 56 334 6.0 10.0 0.00 0.00 0.00 76 1008.7
20260506094306 57 358 6.0 12.0 0.00 0.00 0.00 76 1008.5
20260506093805 57 354 5.0 10.0 0.00 0.00 0.00 76 1008.6
20260506093305 57 344 5.0 9.0 0.00 0.00 0.00 76 1008.6
20260506092805 57 340 6.0 9.0 0.00 0.00 0.00 76 1008.5
20260506091306 57 344 6.0 12.0 0.00 0.00 0.00 76 1008.4
20260506090806 57 345 6.0 10.0 0.00 0.00 0.00 76 1008.3
20260506085306 57 345 5.0 8.0 0.00 0.00 0.00 76 1008.3
20260506084306 57 335 5.0 9.0 0.00 0.00 0.00 76 1008.2
20260506083306 57 341 7.0 12.0 0.00 0.00 0.00 76 1008.2
20260506082805 57 339 6.0 10.0 0.00 0.00 0.00 76 1008.1
20260506082306 57 352 5.0 12.0 0.00 0.00 0.00 76 1008.1
20260506081805 57 343 6.0 9.0 0.00 0.00 0.00 76 1008.1
20260506081305 57 345 5.0 9.0 0.00 0.00 0.00 77 1008.1
20260506080305 57 41 5.0 8.0 0.00 0.00 0.00 76 1007.7
20260506073305 58 63 3.0 6.0 0.00 0.00 0.00 77 1007.8
20260506072805 57 2 3.0 8.0 0.00 0.00 0.00 77 1007.9
20260506072306 57 36 3.0 10.0 0.00 0.00 0.00 77 1007.9
20260506070805 58 8 5.0 10.0 0.00 0.00 0.00 78 1007.9
20260506070305 58 22 5.0 9.0 0.00 0.00 0.00 78 1007.9
20260506061805 59 7 5.0 13.0 0.00 0.00 0.00 77 1007.9
20260506060306 59 1 6.0 10.0 0.00 0.00 0.00 78 1007.8
20260506051305 61 352 8.0 16.0 0.00 0.00 0.00 79 1007.8
20260506050305 61 4 6.0 14.0 0.00 0.00 0.00 79 1007.6
20260506044305 62 353 7.0 13.0 0.00 0.00 0.00 78 1007.6
20260506043805 62 355 5.0 9.0 0.00 0.00 0.00 79 1007.6
20260506040308 63 6 7.0 14.0 0.00 0.00 0.00 79 1007.1
20260506032805 65 342 9.0 14.0 0.00 0.00 0.00 77 1006.9
20260506030805 67 354 6.0 13.0 0.00 0.00 0.00 77 1006.4
20260506030304 67 341 7.0 12.0 0.00 0.00 0.00 76 1006.4
20260506025804 68 349 8.0 14.0 0.00 0.00 0.00 76 1006.5
20260506023305 69 356 7.0 13.0 0.00 0.00 0.00 75 1005.5
20260506022306 69 345 6.0 13.0 0.00 0.00 0.00 75 1005.2
20260506021804 69 8 5.0 13.0 0.00 0.00 0.00 75 1005.3
20260506021304 70 346 7.0 15.0 0.00 0.00 0.00 75 1005.2
20260506014804 72 4 7.0 14.0 0.00 0.00 0.00 72 1004.8
20260506014308 72 15 6.0 12.0 0.00 0.00 0.00 72 1004.5
20260506013808 73 25 5.0 10.0 0.00 0.00 0.00 72 1004.5
20260506013309 73 354 5.0 9.0 0.00 0.00 0.00 71 1004.7
20260506012308 73 10 3.0 8.0 0.00 0.00 0.00 71 1004.3
20260506011308 73 336 5.0 7.0 0.00 0.00 0.00 70 1004.1
20260506004808 74 345 7.0 12.0 0.00 0.00 0.00 69 1003.7
20260506004308 74 345 7.0 12.0 0.00 0.00 0.00 69 1004.1
20260506002808 75 337 6.0 12.0 0.00 0.00 0.00 68 1003.0
20260506002308 75 9 6.0 14.0 0.00 0.00 0.00 67 1003.0
20260506001308 76 340 7.0 13.0 0.00 0.00 0.00 67 1003.0
20260506000808 77 336 6.0 15.0 0.00 0.00 0.00 67 1003.0
20260505235808 78 330 9.0 18.0 0.00 0.00 0.00 65 1003.0
20260505233808 80 329 9.0 15.0 0.00 0.00 0.00 64 1003.0
20260505231808 83 346 9.0 18.0 0.00 0.00 0.00 60 1002.7
20260505225808 85 347 6.0 10.0 0.00 0.00 0.00 53 1002.2
20260505224808 86 339 9.0 16.0 0.00 0.00 0.00 50 1002.2
20260505224308 87 331 9.0 15.0 0.00 0.00 0.00 49 1002.2
20260505223308 89 328 8.0 14.0 0.00 0.00 0.00 47 1001.8
20260505222808 90 284 6.0 12.0 0.00 0.00 0.00 50 1001.7
20260505221808 91 308 5.0 13.0 0.00 0.00 0.00 51 1001.5
20260505221308 90 243 3.0 7.0 0.00 0.00 0.00 52 1001.5
20260505220308 90 238 2.0 12.0 0.00 0.00 0.00 51 1001.8
20260505215308 91 189 5.0 9.0 0.00 0.00 0.00 53 1001.8
20260505214807 90 220 3.0 12.0 0.00 0.00 0.00 55 1001.8
20260505214307 89 204 3.0 12.0 0.00 0.00 0.00 55 1001.8
20260505213808 90 285 6.0 12.0 0.00 0.00 0.00 54 1001.8
20260505210307 89 222 6.0 12.0 0.00 0.00 0.00 56 1002.2
20260505203307 90 220 6.0 12.0 0.00 0.00 0.00 55 1002.7
20260505201808 89 190 7.0 15.0 0.00 0.00 0.00 59 1002.7
20260505200307 89 219 6.0 12.0 0.00 0.00 0.00 58 1002.6
20260505195307 88 191 6.0 12.0 0.00 0.00 0.00 60 1002.8
20260505193807 87 201 7.0 18.0 0.00 0.00 0.00 61 1002.8
20260505191307 86 188 12.0 20.0 0.00 0.00 0.00 62 1002.8
20260505183807 84 203 10.0 21.0 0.00 0.00 0.00 65 1003.0
20260505183307 84 190 13.0 21.0 0.00 0.00 0.00 65 1003.0
20260505182308 83 176 9.0 20.0 0.00 0.00 0.00 66 1003.0
20260505175807 83 218 10.0 23.0 0.00 0.00 0.00 69 1003.0
20260505175307 83 217 7.0 15.0 0.00 0.00 0.00 69 1003.0
20260505173807 82 194 9.0 18.0 0.00 0.00 0.00 70 1003.2
20260505173307 82 192 10.0 21.0 0.00 0.00 0.00 71 1003.2
20260505172807 81 198 12.0 20.0 0.00 0.00 0.00 71 1003.2
20260505170807 80 184 7.0 20.0 0.00 0.00 0.00 74 1003.3
20260505170307 80 183 13.0 25.0 0.00 0.00 0.00 73 1003.3
20260505165807 80 183 12.0 20.0 0.00 0.00 0.00 73 1003.2
20260505165307 80 183 10.0 21.0 0.00 0.00 0.00 74 1003.2
20260505164307 79 174 10.0 23.0 0.00 0.00 0.00 75 1003.2
20260505163806 79 195 12.0 26.0 0.00 0.00 0.00 75 1003.2
20260505163307 79 173 13.0 28.0 0.00 0.00 0.00 75 1003.2
20260505162806 78 202 12.0 25.0 0.00 0.00 0.00 75 1003.1
20260505162307 78 193 13.0 26.0 0.00 0.00 0.00 75 1003.1
20260505161807 78 183 12.0 26.0 0.00 0.00 0.00 75 1003.1
20260505161307 78 179 12.0 24.0 0.00 0.00 0.00 75 1002.8